TimeCST,TemperatureF,Dew PointF,Humidity,Sea Level PressureIn,VisibilityMPH,Wind Direction,Wind SpeedMPH,Gust SpeedMPH,PrecipitationIn,Events,Conditions,WindDirDegrees,DateUTC
12:15 AM,26.6,23.0,86,30.17,10.0,NNW,11.5,-,N/A,,Overcast,340,2013-03-01 06:15:00
12:35 AM,24.8,23.0,93,30.17,10.0,NNW,10.4,-,N/A,,Overcast,340,2013-03-01 06:35:00
1:15 AM,24.8,23.0,93,30.17,10.0,NNW,10.4,-,N/A,,Overcast,340,2013-03-01 07:15:00
1:35 AM,24.8,23.0,93,30.17,10.0,NNW,13.8,-,N/A,,Overcast,340,2013-03-01 07:35:00
1:55 AM,24.8,23.0,93,30.18,10.0,NNW,11.5,-,N/A,Rain,Freezing Rain,330,2013-03-01 07:55:00
2:15 AM,24.8,23.0,93,30.18,10.0,NNW,12.7,-,N/A,,Overcast,330,2013-03-01 08:15:00
2:35 AM,24.8,23.0,93,30.17,9.0,NNW,10.4,-,N/A,Rain,Freezing Rain,330,2013-03-01 08:35:00
2:55 AM,24.8,23.0,93,30.17,9.0,NNW,10.4,-,N/A,,Overcast,330,2013-03-01 08:55:00
3:35 AM,24.8,23.0,93,30.17,9.0,NNW,12.7,-,N/A,Rain,Freezing Rain,330,2013-03-01 09:35:00
3:55 AM,24.8,23.0,93,30.17,8.0,NNW,12.7,-,N/A,Rain,Freezing Rain,330,2013-03-01 09:55:00
4:15 AM,24.8,23.0,93,30.17,7.0,NNW,12.7,-,N/A,,Overcast,340,2013-03-01 10:15:00
4:35 AM,24.8,23.0,93,30.18,6.0,NNW,11.5,-,N/A,Snow,Light Snow,340,2013-03-01 10:35:00
4:55 AM,24.8,23.0,93,30.18,6.0,NNW,11.5,-,N/A,Snow,Light Snow,340,2013-03-01 10:55:00
5:15 AM,24.8,23.0,93,30.19,10.0,NNW,12.7,-,N/A,,Overcast,340,2013-03-01 11:15:00
5:35 AM,24.8,23.0,93,30.19,10.0,North,12.7,-,N/A,,Overcast,350,2013-03-01 11:35:00
5:55 AM,24.8,23.0,93,30.19,4.0,North,10.4,-,N/A,Snow,Light Snow,350,2013-03-01 11:55:00
6:15 AM,23.0,23.0,100,30.20,3.0,NNW,11.5,-,N/A,Snow,Light Snow,340,2013-03-01 12:15:00
6:35 AM,23.0,23.0,100,30.20,4.0,NNW,11.5,-,N/A,Snow,Light Snow,340,2013-03-01 12:35:00
6:55 AM,23.0,23.0,100,30.20,2.5,NNW,12.7,-,N/A,Snow,Light Snow,340,2013-03-01 12:55:00
7:15 AM,23.0,21.2,93,30.21,3.0,North,10.4,-,N/A,Snow,Light Snow,350,2013-03-01 13:15:00
7:35 AM,23.0,21.2,93,30.21,7.0,North,12.7,-,N/A,Snow,Light Snow,350,2013-03-01 13:35:00
7:55 AM,23.0,21.2,93,30.22,3.0,North,12.7,-,N/A,Snow,Light Snow,350,2013-03-01 13:55:00
8:15 AM,23.0,21.2,93,30.22,2.5,North,12.7,-,N/A,Snow,Light Snow,350,2013-03-01 14:15:00
8:35 AM,23.0,21.2,93,30.23,2.0,North,11.5,-,N/A,Snow,Light Snow,350,2013-03-01 14:35:00
9:15 AM,23.0,21.2,93,30.24,6.0,North,16.1,-,N/A,Snow,Light Snow,350,2013-03-01 15:15:00
9:35 AM,23.0,21.2,93,30.25,8.0,North,13.8,-,N/A,Snow,Light Snow,350,2013-03-01 15:35:00
9:55 AM,23.0,21.2,93,30.25,7.0,North,12.7,-,N/A,Snow,Light Snow,360,2013-03-01 15:55:00
10:15 AM,23.0,21.2,93,30.25,4.0,North,12.7,-,N/A,Snow,Light Snow,350,2013-03-01 16:15:00
10:35 AM,24.8,21.2,86,30.25,3.0,North,12.7,-,N/A,Snow,Light Snow,360,2013-03-01 16:35:00
10:55 AM,24.8,21.2,86,30.25,5.0,North,11.5,-,N/A,Snow,Light Snow,350,2013-03-01 16:55:00
11:35 AM,24.8,21.2,86,30.26,7.0,North,11.5,-,N/A,Rain,Freezing Rain,360,2013-03-01 17:35:00
12:15 PM,24.8,23.0,93,30.26,8.0,North,13.8,-,N/A,Rain,Freezing Rain,360,2013-03-01 18:15:00
12:35 PM,26.6,21.2,80,30.26,7.0,North,12.7,-,N/A,Rain,Freezing Rain,10,2013-03-01 18:35:00
12:55 PM,26.6,21.2,80,30.26,8.0,NNE,10.4,19.6,N/A,Snow,Light Snow,30,2013-03-01 18:55:00
1:35 PM,26.6,19.4,74,30.25,10.0,North,16.1,-,N/A,,Overcast,10,2013-03-01 19:35:00
1:55 PM,26.6,19.4,74,30.25,10.0,North,15.0,-,N/A,Rain,Freezing Rain,10,2013-03-01 19:55:00
2:15 PM,26.6,17.6,69,30.26,-9999.0,North,16.1,-,N/A,,Overcast,360,2013-03-01 20:15:00
2:35 PM,24.8,17.6,74,30.26,10.0,North,16.1,-,N/A,Rain,Freezing Rain,10,2013-03-01 20:35:00
2:55 PM,24.8,17.6,74,30.26,10.0,North,16.1,-,N/A,,Overcast,10,2013-03-01 20:55:00
3:15 PM,24.8,17.6,74,30.26,10.0,North,13.8,-,N/A,Rain,Freezing Rain,360,2013-03-01 21:15:00
3:35 PM,24.8,17.6,74,30.27,10.0,North,13.8,-,N/A,,Overcast,10,2013-03-01 21:35:00
3:55 PM,24.8,17.6,74,30.27,10.0,North,12.7,-,N/A,,Overcast,360,2013-03-01 21:55:00
4:15 PM,24.8,17.6,74,30.27,10.0,North,12.7,-,N/A,,Overcast,10,2013-03-01 22:15:00
4:35 PM,24.8,17.6,74,30.27,10.0,North,12.7,-,N/A,,Overcast,10,2013-03-01 22:35:00
4:55 PM,24.8,15.8,69,30.28,10.0,North,15.0,-,N/A,,Overcast,360,2013-03-01 22:55:00
5:15 PM,24.8,17.6,74,30.29,10.0,North,12.7,19.6,N/A,,Overcast,10,2013-03-01 23:15:00
5:35 PM,24.8,17.6,74,30.30,10.0,North,12.7,18.4,N/A,,Overcast,10,2013-03-01 23:35:00
5:55 PM,24.8,15.8,69,30.30,10.0,North,16.1,-,N/A,,Overcast,10,2013-03-01 23:55:00
6:15 PM,24.8,15.8,69,30.31,10.0,NNE,15.0,-,N/A,,Overcast,20,2013-03-02 00:15:00
6:35 PM,23.0,15.8,74,30.31,10.0,NNE,15.0,-,N/A,,Overcast,20,2013-03-02 00:35:00
6:55 PM,23.0,15.8,74,30.32,10.0,North,12.7,-,N/A,,Overcast,360,2013-03-02 00:55:00
7:15 PM,23.0,15.8,74,30.32,10.0,NNE,15.0,-,N/A,,Overcast,20,2013-03-02 01:15:00
7:35 PM,23.0,15.8,74,30.32,10.0,North,10.4,16.1,N/A,,Overcast,10,2013-03-02 01:35:00
7:55 PM,23.0,15.8,74,30.33,10.0,NNE,9.2,-,N/A,,Overcast,20,2013-03-02 01:55:00
8:15 PM,23.0,15.8,74,30.33,10.0,NNE,10.4,-,N/A,,Overcast,20,2013-03-02 02:15:00
8:35 PM,23.0,15.8,74,30.33,10.0,North,10.4,-,N/A,,Overcast,10,2013-03-02 02:35:00
8:55 PM,23.0,17.6,80,30.33,10.0,North,9.2,-,N/A,,Overcast,10,2013-03-02 02:55:00
9:15 PM,23.0,15.8,74,30.33,10.0,North,10.4,-,N/A,,Overcast,10,2013-03-02 03:15:00
9:35 PM,23.0,15.8,74,30.33,10.0,North,12.7,-,N/A,,Overcast,360,2013-03-02 03:35:00
9:55 PM,23.0,17.6,80,30.33,10.0,North,9.2,-,N/A,,Overcast,360,2013-03-02 03:55:00
10:15 PM,23.0,17.6,80,30.33,10.0,North,10.4,-,N/A,,Overcast,360,2013-03-02 04:15:00
10:35 PM,23.0,17.6,80,30.33,10.0,NNE,12.7,-,N/A,,Overcast,20,2013-03-02 04:35:00
10:55 PM,23.0,15.8,74,30.33,10.0,North,10.4,-,N/A,,Overcast,10,2013-03-02 04:55:00
11:15 PM,23.0,15.8,74,30.33,10.0,NNE,11.5,-,N/A,,Overcast,20,2013-03-02 05:15:00
11:35 PM,23.0,15.8,74,30.33,10.0,North,8.1,-,N/A,,Overcast,350,2013-03-02 05:35:00
11:55 PM,21.2,15.8,80,30.32,-9999.0,North,11.5,-,N/A,,Overcast,350,2013-03-02 05:55:00